Location: McFarlands Corners
(41.4117°N, 81.3382°W)
Time: 17:22:52
(UTC+00:00)

Transit 2A - Pass Details

Date: 25 February 2026
Orbit: 590 x 954 km, 66.7° (Epoch: 7 March)

Event Time Altitude Azimuth Distance (km) Brightness Sun altitude
Rises 01:00:31 0° 331° (NNW) 3,544 9.9 -21.4°
Reaches altitude 10° 01:03:09 10° 334° (NNW) 2,557 9.1 -21.9°
Maximum altitude 01:09:04 70° 58° (ENE) 879 6.0 -23.0°
Enters shadow 01:10:13 54° 117° (ESE) 981 6.1 -23.2°
